Weather History for KASX - September, 2012

Change the Weather History Date:

Monday, September 17, 2012

  Actual Average Record
Temperature  
Mean Temperature 50 °F -  
Max Temperature 60 °F 67 °F 89 °F (1948)
Min Temperature 35 °F 45 °F 26 °F (1959)
Degree Days  
Heating Degree Days 16    
Moisture  
Dew Point 42 °F    
Average Humidity 70    
Maximum Humidity 93    
Minimum Humidity 41    
Precipitation  
Precipitation 0.01 in - - ()
Sea Level Pressure  
Sea Level Pressure 29.95 in    
Wind  
Wind Speed 7 mph (NNW)    
Max Wind Speed 14 mph    
Max Gust Speed 20 mph    
Visibility 10 miles    
Events      
Averages and records for this station are not official NWS values.
T = Trace of Precipitation, MM = Missing Value Source: NWS Daily Summary

Daily Weather History Graph

Daily Weather History Graph

Search for Another Location

Airport or City:

Trip Planner

Search our weather history database for the weather conditions in past years. The results will help you decide how hot, cold, wet, or windy it might be!

Date:

Astronomy

Sep. 17, 2012 Rise Set
Actual Time 6:44 AM CDT 7:10 PM CDT
Civil Twilight 6:14 AM CDT 7:40 PM CDT
Nautical Twilight 5:38 AM CDT 8:16 PM CDT
Astronomical Twilight 5:01 AM CDT 8:53 PM CDT
Moon 8:44 AM CDT (9/17) 7:40 PM CDT (9/17)
Length of Visible Light 13h 25m
Length of Day
12h 25m
Waxing Crescent, 3% of the Moon is Illuminated
Sep 17
Waxing Crescent
Sep 22
First Quarter
Sep 29
Full
Oct 8
Last Quarter
Oct 15
New

Hourly Weather History & Observations

Time (CDT) Temp. Windchill Dew Point Humidity Pressure Visibility Wind Dir Wind Speed Gust Speed Precip Events Conditions
12:53 AM 59.0 °F - 46.9 °F 64% 29.94 in 10.0 mi NW 8.1 mph - N/A   Overcast
1:53 AM 55.0 °F - 48.9 °F 80% 29.93 in 10.0 mi NW 4.6 mph - 0.00 in   Overcast
2:53 AM 54.0 °F - 48.9 °F 83% 29.90 in 10.0 mi NW 4.6 mph - N/A   Scattered Clouds
3:53 AM 54.0 °F - 50.0 °F 86% 29.90 in 10.0 mi WNW 5.8 mph - N/A   Overcast
4:53 AM 53.1 °F - 51.1 °F 93% 29.92 in 10.0 mi West 4.6 mph - 0.01 in   Overcast
6:50 AM 51.8 °F - 48.2 °F 88% 29.92 in 10.0 mi Calm Calm - N/A   Overcast
7:45 AM 51.8 °F - 48.2 °F 88% 29.93 in 10.0 mi WNW 3.5 mph - N/A   Overcast
7:53 AM 53.1 °F - 48.9 °F 86% 29.94 in 10.0 mi WNW 3.5 mph - N/A   Overcast
8:07 AM 53.6 °F - 48.2 °F 82% 29.93 in 10.0 mi NNW 4.6 mph - N/A   Overcast
8:53 AM 54.0 °F - 46.9 °F 77% 29.94 in 10.0 mi North 6.9 mph - N/A   Overcast
9:53 AM 55.0 °F - 46.0 °F 72% 29.93 in 10.0 mi North 11.5 mph - N/A   Overcast
10:53 AM 55.9 °F - 45.0 °F 67% 29.94 in 10.0 mi NNW 9.2 mph - N/A   Mostly Cloudy
11:18 AM 57.2 °F - 44.6 °F 63% 29.94 in 10.0 mi North 13.8 mph - N/A   Overcast
11:53 AM 57.0 °F - 43.0 °F 59% 29.96 in 10.0 mi North 11.5 mph - N/A   Overcast
12:00 PM 55.4 °F - 42.8 °F 63% 29.95 in 10.0 mi North 10.4 mph - N/A   Overcast
12:07 PM 57.2 °F - 42.8 °F 59% 29.95 in 10.0 mi North 12.7 mph - N/A   Overcast
12:53 PM 57.0 °F - 41.0 °F 55% 29.95 in 10.0 mi North 9.2 mph - N/A   Mostly Cloudy
1:53 PM 57.0 °F - 39.0 °F 51% 29.95 in 10.0 mi North 6.9 mph - N/A   Overcast
2:53 PM 60.1 °F - 36.0 °F 41% 29.94 in 10.0 mi North 9.2 mph - N/A   Overcast
3:53 PM 55.9 °F - 36.0 °F 47% 29.95 in 10.0 mi NNW 10.4 mph 19.6 mph N/A   Overcast
4:53 PM 54.0 °F - 37.0 °F 53% 29.96 in 10.0 mi NNW 12.7 mph - N/A   Overcast
5:53 PM 54.0 °F - 36.0 °F 51% 29.96 in 10.0 mi North 12.7 mph - N/A   Overcast
6:53 PM 52.0 °F - 34.0 °F 50% 29.98 in 10.0 mi North 6.9 mph - N/A   Overcast
7:53 PM 42.1 °F 39.2 °F 35.1 °F 76% 29.98 in 10.0 mi NNW 4.6 mph - N/A   Clear
8:53 PM 42.1 °F 39.2 °F 34.0 °F 73% 29.99 in 10.0 mi WNW 4.6 mph - N/A   Mostly Cloudy
9:53 PM 39.0 °F 35.7 °F 34.0 °F 82% 29.99 in 10.0 mi West 4.6 mph - N/A   Scattered Clouds
10:53 PM 39.0 °F 35.7 °F 34.0 °F 82% 29.99 in 10.0 mi West 4.6 mph - N/A   Clear
11:53 PM 35.1 °F 31.0 °F 32.0 °F 89% 29.99 in 10.0 mi West 4.6 mph - N/A   Partly Cloudy